This is the latest recevied weather packets stored in our database for station/object W1RCY. If no packets are shown the sender has not sent any weather packets the latest 10 day(s).
| Time | Temp. | Humidity | Pressure | Rain* | Wind** | Luminosity | Snow |
|---|---|---|---|---|---|---|---|
| 1777475775 | 9.44° C | 83% | 1015.8 hPa | 0 mm | - | 230 W/m² | - |
| 1777475472 | 9.44° C | 83% | 1016.1 hPa | 0 mm | - | 224 W/m² | - |
| 1777475168 | 8.89° C | 84% | 1016.3 hPa | 0 mm | - | 277 W/m² | - |
| 1777474864 | 8.89° C | 85% | 1016 hPa | 0 mm | - | 279 W/m² | - |
| 1777474560 | 9.44° C | 84% | 1016.2 hPa | 0 mm | - | 211 W/m² | - |
| 1777474257 | 9.44° C | 84% | 1016.1 hPa | 0 mm | - | 206 W/m² | - |
| 1777473954 | 10° C | 82% | 1016.2 hPa | 0 mm | - | 173 W/m² | - |
| 1777473652 | 9.44° C | 83% | 1016.3 hPa | 0 mm | - | 166 W/m² | - |
| 1777473348 | 9.44° C | 84% | 1016.4 hPa | 0 mm | - | 227 W/m² | - |
| 1777473044 | 9.44° C | 82% | 1016.3 hPa | 0 mm | - | 232 W/m² | - |
| 1777472740 | 9.44° C | 83% | 1016.9 hPa | 0 mm | - | 222 W/m² | - |
| 1777472437 | 9.44° C | 83% | 1016.9 hPa | 0 mm | - | 205 W/m² | - |
| 1777472129 | 9.44° C | 82% | 1016.7 hPa | 0 mm | - | 237 W/m² | - |
| 1777471829 | 10° C | 81% | 1016.8 hPa | 0 mm | - | 189 W/m² | - |
| 1777471525 | 10° C | 81% | 1016.9 hPa | 0 mm | - | 208 W/m² | - |
| 1777471222 | 10° C | 82% | 1016.7 hPa | 0 mm | - | 250 W/m² | - |
| 1777470919 | 9.44° C | 82% | 1016.7 hPa | 0 mm | - | 323 W/m² | - |
| 1777470616 | 9.44° C | 81% | 1016.9 hPa | 0 mm | - | 286 W/m² | - |
| 1777470312 | 9.44° C | 82% | 1016.7 hPa | 0 mm | - | 294 W/m² | - |
| 1777470008 | 9.44° C | 82% | 1016.7 hPa | 0 mm | - | 273 W/m² | - |
| 1777469704 | 8.89° C | 84% | 1016.9 hPa | 0 mm | - | 248 W/m² | - |
| 1777469401 | 8.89° C | 82% | 1017.1 hPa | 0 mm | - | 222 W/m² | - |
| 1777469101 | 8.89° C | 82% | 1017.1 hPa | 0 mm | - | 218 W/m² | - |
| 1777468795 | 8.89° C | 83% | 1017.1 hPa | 0 mm | - | 180 W/m² | - |
| 1777468492 | 8.89° C | 81% | 1017 hPa | 0 mm | - | 211 W/m² | - |
* Rain latest hour (hover to see other rain measurements)
** Current wind speed in m/s (hover to see current wind gust speed)